Regional Weather Roundup
Issued by NWS Charleston, SC

Current Version | Previous Version | Graphics & Text | Print | Product List | Glossary On
Versions: 1 2 3 4 5 6 7 8 9 10 11 12 13 14 15 16 17 18 19 20 21 22 23 24 25 26 27 28 29 30 31 32 33 34 35 36 37 38 39 40 41 42 43 44 45 46 47 48 49 50
000 ASUS42 KCHS 301812 RWRCHS REGIONAL WEATHER ROUNDUP NATIONAL WEATHER SERVICE CHARLESTON SC 200 PM EDT TUE JUN 30 2015 NOTE: "FAIR" INDICATES FEW OR NO CLOUDS BELOW 12,000 FEET WITH NO SIGNIFICANT WEATHER AND/OR OBSTRUCTIONS TO VISIBILITY. NOT ALL STATIONS ARE QUALITY CONTROLLED BY THE NATIONAL WEATHER SERVICE. USE DATA WITH CAUTION...ESPECIALLY DEWPOINT OBSERVATIONS. SCZ027-030-031-034>040-042>050-301900- ...SOUTHEAST SOUTH CAROLINA... CITY SKY/WX TMP DP RH WIND PRES REMARKS N CHARLESTON MOSUNNY 91 66 43 SW9 29.98F HX 93 6HR MIN TEMP: 77; 6HR MAX TEMP: 91; WATERFRONT PAR N/A 88 69 53 SW7 29.97F HX 92 MOUNT PLEASANT FAIR 90 66 45 SW7 29.99F HX 92 JOHNS ISLAND FAIR 90 73 58 S9G18 29.99F HX 98 PINOPOLIS NOT AVBL MONCKS CORNER FAIR 91 64 40 W8 29.98F HX 93 SUMMERVILLE FAIR 91 70 49 W6 29.99F HX 97 BEAUFORT MCAS PTSUNNY 90 70 51 W7 29.99F HX 95 6HR MIN TEMP: 79; 6HR MAX TEMP: 92; BEAUFORT ARPT FAIR 88 77 70 S8 29.98F HX 100 HILTON HEAD IS MOSUNNY 86 77 74 S8 30.01F HX 97 WALTERBORO MOCLDY 90 64 43 W8 29.99F HX 91 ALLENDALE FAIR 90 68 48 VRB3 29.96F HX 93 ...SOUTHERN MIDLANDS AND PEE DEE... CITY SKY/WX TMP DP RH WIND PRES REMARKS GEORGETOWN NOT AVBL KINGSTREE NOT AVBL ORANGEBURG PTSUNNY 92 65 40 W8G16 29.97F HX 94 6HR MIN TEMP: 72; 6HR MAX TEMP: 92; BARNWELL MOCLDY 93 66 40 SW7 29.97F HX 96 AIKEN FAIR N/A N/A N/A W9 30.00F MANNING MOCLDY N/A N/A N/A S10 29.97F COLUMBIA MOSUNNY 92 66 42 SW12 29.94F HX 94 6HR MIN TEMP: 75; 6HR MAX TEMP: 92; SUMTER PTSUNNY 90 67 45 SW6 29.94F HX 93 6HR MIN TEMP: 76; 6HR MAX TEMP: 91; FLORENCE SUNNY 93 65 39 SW13 29.95F HX 95 6HR MIN TEMP: 74; 6HR MAX TEMP: 93; MYRTLE BEACH MOSUNNY 90 70 51 S14 29.99F HX 95 N MYRTLE BEACH MOSUNNY 86 73 65 S17 29.98F HX 93 6HR MIN TEMP: 78; 6HR MAX TEMP: 89; $$ GAZ063-065-086>088-099>101-113>116-118-119-134>141-150-301900- ...SOUTHEAST GEORGIA... CITY SKY/WX TMP DP RH WIND PRES REMARKS SAVANNAH ARPT PTSUNNY 91 69 48 W9G16 29.99F HX 96 6HR MIN TEMP: 75; 6HR MAX TEMP: 91; HUNTER AAF PTSUNNY 90 74 59 VRB7 29.97F HX 98 6HR MIN TEMP: 76; 6HR MAX TEMP: 91; FORT STEWART PTSUNNY 89 70 53 W6 29.97F HX 94 6HR MIN TEMP: 75; 6HR MAX TEMP: 90; STATESBORO MOSUNNY 92 73 54 SW6 29.97F HX 100 SYLVANIA PTCLDY 92 71 50 SW6 29.98F HX 98 CLAXTON FAIR 90 72 55 S5 29.98F HX 96 ...CSRA...CENTRAL AND FAR SOUTHEAST GEORGIA... CITY SKY/WX TMP DP RH WIND PRES REMARKS THOMSON PTSUNNY 77 74 89 CALM 30.00F AUGUSTA-BUSH MOSUNNY 94 67 41 S8 29.94F HX 97 6HR MIN TEMP: 74; 6HR MAX TEMP: 94; AUGUSTA-DANIEL MOSUNNY 91 65 41 VRB5G20 29.96F HX 93 SWAINSBORO FAIR 91 68 46 CALM 29.98F HX 95 VIDALIA MOSUNNY 88 68 51 W5 29.99F HX 91 EASTMAN MOCLDY 89 70 52 W8 30.01F HX 94 HAZLEHURST FAIR 90 72 56 SW7 29.99F HX 97 ALMA CLOUDY 87 73 62 SW6 30.01F HX 94 6HR MIN TEMP: 73; 6HR MAX TEMP: 89; WAYCROSS CLOUDY 77 76 94 SE5 30.01F THUNDER JESUP FAIR 90 73 58 W6 30.00F HX 98 BAXLEY FAIR 86 72 62 W5 30.01S HX 92 BRUNSWICK MOSUNNY 90 72 55 SW7 30.01F HX 96 SAINT SIMONS MOSUNNY 89 71 55 SW10 30.00F HX 95 6HR MIN TEMP: 76; 6HR MAX TEMP: 89; $$ SCZ027-028-034-036>038-045-046-048>050-GAZ119-141-301900- ...LAKE AND SUPPLEMENTAL COASTAL OBSERVATIONS... STATION/POSITION TIME TEMP WIND PRES WAVE SWELL AIR SEA DIR/SP/G HT/PER HT/PER/DIR (UTC) (F) (DEG/KT/KT) (MB) (FT/S) (FT/S/D) UPR LAKE MARION NOT AVBL WINYAH BAY NOT AVBL LAKE MURRAY 1700 86 250/ 7/ 15 1014.6F ACE BASIN NERRS NOT AVBL FORT PULASKI 1700 85 84 160/ 6/ 12 1016.9F SAPELO ISLAND 1700 88 220/ 9 1017.0F $$ ANZ835-935-AMZ111-154-330-350-352-354-370-450-454-472-301900- ...C-MAN AND BUOY OBSERVATIONS... STATION/POSITION TIME TEMP WIND PRES WAVE SWELL AIR SEA DIR/SP/G HT/PER HT/PER/DIR (UTC) (F) (DEG/KT/KT) (MB) (FT/S) (FT/S/D) BUOY 41004 1750 81 82 210/ 10/ 12 1016.0F 3/ 6 3/ 6 BUOY 41008 1750 79 81 200/ 10/ 12 1016.9F 2/ 8 2/100/ 8 FOLLY BEACH CMAN 1700 85 200/ 13/ 15 1016.6F CAPERS NEARSHORE NOT AVBL FRIPP NEARSHORE 1700 83 190/ 14/ 16 1016.7F STATION/POSITION TIME TEMP WIND PRES WAVE SWELL AIR SEA DIR/SP/G HT/PER HT/PER/DIR (UTC) (F) (DEG/KT/KT) (MB) (FT/S) (FT/S/D) 5E ST. MARYS GA 1721 80 N/A 2/ 9 FRYING PAN BUOY 1750 81 80 220/ 12/ 14 1016.5F 4/ 6 2/140/ 6 BUOY 41025 1750 81 83 210/ 12/ 14 1015.3F 3/ 8 3/120/ 8 CAPE LOOKOUT NC 1700 82 230/ 9/ 12 1015.4F BUOY 41002 1750 78 79 210/ 12/ 14 1019.2S 6/ 8 5/170/ 8 BUOY 41010 1720 83 84 250/ 12/ 14 1020.2R ST AUGUSTINE FL 1800 80 75 200/ 9/ 11 1018.5F $$

USA.gov is the U.S. government's official web portal to all federal, state and local government web resources and services.